Cortez, CO

6:22 PM MDT on September 24, 2016 (GMT -0600)
Cortez Municipal

Weather History for KCEZ - September, 2015

Change the Weather History Date:

Saturday, September 26, 2015

  Actual Average Record
Temperature  
Mean Temperature 63 °F 56 °F  
Max Temperature 86 °F 74 °F 87 °F (2003)
Min Temperature 40 °F 39 °F 28 °F (2000)
Degree Days  
Heating Degree Days 2 9  
Month to date heating degree days 36 122  
Since 1 July heating degree days 36 134  
Cooling Degree Days 0 0  
Month to date cooling degree days 25 16  
Year to date cooling degree days 484 425  
Growing Degree Days 12 (Base 50)    
Moisture  
Dew Point 33 °F    
Average Humidity 44    
Maximum Humidity 73    
Minimum Humidity 14    
Precipitation  
Precipitation 0.00 in 0.05 in 0.03 in (2013)
Month to date precipitation 0.31 1.56  
Year to date precipitation 9.28 10.00  
Sea Level Pressure  
Sea Level Pressure 30.04 in    
Wind  
Wind Speed 7 mph (NE)    
Max Wind Speed 16 mph    
Max Gust Speed 21 mph    
Visibility 10 miles    
Events      
T = Trace of Precipitation, MM = Missing Value Source: NWS Daily Summary

Daily Weather History Graph

Daily Weather History Graph

Search for Another Location

Airport or City:

Trip Planner

Search our weather history database for the weather conditions in past years. The results will help you decide how hot, cold, wet, or windy it might be!

Date:

Astronomy

Sep. 26, 2015 Rise Set
Actual Time 7:05 AM MDT 7:05 PM MDT
Civil Twilight 6:39 AM MDT 7:31 PM MDT
Nautical Twilight 6:09 AM MDT 8:01 PM MDT
Astronomical Twilight 5:38 AM MDT 8:32 PM MDT
Moon 6:18 PM MDT (9/26) 5:16 AM MDT (9/26)
Length of Visible Light 12h 52m
Length of Day
12h 00m
Waxing Gibbous, 97% of the Moon is Illuminated
Sep 26
Waxing Gibbous
Sep 27
Full
Oct 4
Last Quarter
Oct 12
New
Oct 20
First Quarter

Hourly Weather History & Observations

Time (MDT) Temp. Windchill Dew Point Humidity Pressure Visibility Wind Dir Wind Speed Gust Speed Precip Events Conditions
12:53 AM 51.1 °F - 35.1 °F 54% 30.10 in 10.0 mi ENE 3.5 mph - N/A   Clear
1:53 AM 46.0 °F 44.8 °F 35.1 °F 66% 30.11 in 10.0 mi ENE 3.5 mph - N/A   Clear
2:53 AM 46.9 °F - 35.1 °F 63% 30.09 in 10.0 mi ENE 3.5 mph - N/A   Clear
3:53 AM 46.0 °F 43.9 °F 34.0 °F 63% 30.08 in 10.0 mi ENE 4.6 mph - N/A   Clear
4:53 AM 43.0 °F 41.3 °F 34.0 °F 71% 30.09 in 10.0 mi ENE 3.5 mph - N/A   Clear
5:53 AM 41.0 °F 38.0 °F 33.1 °F 73% 30.11 in 10.0 mi SE 4.6 mph - N/A   Clear
6:53 AM 42.1 °F 38.4 °F 33.1 °F 70% 30.13 in 10.0 mi East 5.8 mph - N/A   Clear
7:53 AM 46.9 °F - 35.1 °F 63% 30.16 in 10.0 mi NE 6.9 mph - N/A   Clear
8:53 AM 60.1 °F - 36.0 °F 41% 30.13 in 10.0 mi NE 6.9 mph - N/A   Clear
9:53 AM 71.1 °F - 34.0 °F 26% 30.11 in 10.0 mi Variable 4.6 mph - N/A   Clear
10:53 AM 75.0 °F - 33.1 °F 22% 30.09 in 10.0 mi Calm Calm - N/A   Clear
11:53 AM 80.1 °F - 30.9 °F 17% 30.06 in 10.0 mi West 8.1 mph - N/A   Clear
12:53 PM 82.9 °F - 32.0 °F 16% 30.04 in 10.0 mi WNW 13.8 mph - N/A   Clear
1:53 PM 84.0 °F - 30.0 °F 14% 30.02 in 10.0 mi West 10.4 mph - N/A   Clear
2:53 PM 84.9 °F - 30.0 °F 14% 29.98 in 10.0 mi WSW 8.1 mph - N/A   Clear
3:53 PM 82.9 °F - 30.9 °F 15% 29.96 in 10.0 mi WNW 13.8 mph - N/A   Clear
4:53 PM 82.9 °F - 30.9 °F 15% 29.96 in 10.0 mi WNW 12.7 mph - N/A   Clear
5:53 PM 80.1 °F - 30.0 °F 16% 29.97 in 10.0 mi West 11.5 mph - N/A   Clear
6:53 PM 75.9 °F - 30.9 °F 19% 29.98 in 10.0 mi WSW 5.8 mph - N/A   Clear
7:53 PM 64.9 °F - 33.1 °F 31% 29.99 in 10.0 mi South 3.5 mph - N/A   Clear
8:53 PM 60.1 °F - 35.1 °F 39% 29.99 in 10.0 mi NE 8.1 mph - N/A   Clear
9:53 PM 57.0 °F - 30.9 °F 37% 29.97 in 10.0 mi ENE 6.9 mph - N/A   Clear
10:53 PM 55.0 °F - 30.0 °F 38% 29.96 in 10.0 mi ENE 9.2 mph - N/A   Clear
11:53 PM 53.1 °F - 32.0 °F 45% 29.95 in 10.0 mi East 6.9 mph - N/A   Clear